Track COSMOS 1766 now! 10-day predictions COSMOS 1766 is classified as:
1 16881U 86055A 22225.76460518 .00002208 00000-0 12289-3 0 9995 2 16881 82.5086 338.4257 0016956 96.7406 263.5755 15.13026600944718